Terminal Aerodrome Forecast
Issued by NWS

Home | Current Version | Previous Version | Text Only | Print | Product List | Glossary On
Versions: 1 2 3 4 5 6 7 8 9 10 11 12 13 14 15 16 17 18 19 20 21 22
000
FTUS45 KFGZ 311600 AAA
TAFPRC
TAF AMD
KPRC 311614Z 3116/0112 VRB05KT P6SM SCT005 BKN025
      TEMPO 3116/3120 4SM -RA BKN020 OVC040
     FM312000 VRB05KT P6SM BKN030
     FM010200 20005KT P6SM FEW030
      TEMPO 0108/0112 1SM BR FEW002 OVC006=

USA.gov is the U.S. government's official web portal to all federal, state and local government web resources and services.